Regional Weather Roundup
Issued by NWS

Home | Current Version | Previous Version | Text Only | Print | Product List | Glossary Off
Versions: 1 2 3 4 5 6 7 8 9 10 11 12 13 14 15 16 17 18 19 20 21 22 23 24 25 26 27

000
ASUS45 KCYS 311410
RWRWY

WYOMING REGIONAL WEATHER ROUNDUP
NATIONAL WEATHER SERVICE CHEYENNE WY
800 AM MDT WED AUG 31 2016

NOTE:  "FAIR" INDICATES FEW OR NO CLOUDS BELOW 12,000 FEET
WITH NO SIGNIFICANT WEATHER AND/OR OBSTRUCTIONS TO VISIBILITY.

WYZ001-311500-
YELLOWSTONE NATIONAL PARK

CITY           SKY/WX    TMP DP  RH WIND       PRES   REMARKS
LK YELLOWSTONE   N/A     45  35  68 CALM      30.39S
W YELLOWSTONE  NOT AVBL

$$
WYZ002>013-054>058-071-098>099-311500-
NORTHERN WYOMING

CITY           SKY/WX    TMP DP  RH WIND       PRES   REMARKS
JACKSON        SUNNY     46  36  66 N5        30.30R
CODY           FAIR      61  37  41 CALM      30.18S
GREYBULL       FAIR      66  36  32 SE3       30.11S
WORLAND        FAIR      70  41  34 SE10      30.13S
SHERIDAN       FAIR      61  43  51 CALM      30.09S
BUFFALO        FAIR      69  41  36 S9        30.17F
GILLETTE       FAIR      62  52  69 SE10      30.19S
HULETT         FAIR      70  52  52 S12G20    30.21S
NEWCASTLE      FAIR      64  52  63 SE9       30.25R

$$
WYZ014>020-022>026-101>103-311500-
CENTRAL WYOMING

CITY           SKY/WX    TMP DP  RH WIND       PRES   REMARKS
BIG PINEY      FAIR      47  33  58 N3        30.35S
PINEDALE       FAIR      45  32  61 NW6       30.35F
DUBOIS         FAIR      50  28  43 NW9       30.36S
LANDER         FAIR      63  35  35 CALM      30.26S
RIVERTON       FAIR      60  42  51 S3        30.25R
CASPER         FAIR      52  48  86 SW3       30.26R
DOUGLAS        FAIR      59  53  80 SE8       30.26S

$$
WYZ021-027>030-104>119-311500-
SOUTHERN WYOMING

CITY           SKY/WX    TMP DP  RH WIND       PRES   REMARKS
EVANSTON       FAIR      58  26  29 E9        30.31R
FORT BRIDGER   SUNNY     55  23  28 N3        30.35R
ROCK SPRINGS   FAIR      57  36  45 NE3       30.31S
DIXON          FAIR      54  37  52 E5        30.34S
RAWLINS        FAIR      52  42  69 CALM      30.34S
SARATOGA       FAIR      46  41  81 CALM      30.36S
LARAMIE        FAIR      47  44  90 SW7       30.37S
CHEYENNE       CLOUDY    54  52  93 CALM      30.34F FOG
TORRINGTON     FOG       57  57 100 S6        30.26R VSB<1/4
PINE BLUFFS    PTSUNNY   54  54 100 CALM      30.32S

$$




USA.gov is the U.S. government's official web portal to all federal, state and local government web resources and services.